#timestamp,LO_Frequency,Hit,StdDev 
1676642415.7,286047002.3,N
1676642435.5,286047002.2,N
1676642455.4,286047002.2,N
1676642475.2,286047002.7,N
1676642495.1,286047003.7,N
1676642496.0,286047003.7,N
1676642515.8,286047001.3,N
1676642535.6,286047001.8,N
1676642555.5,286047003.2,N
1676642575.3,286047004.4,N
1676642595.2,286047001.0,N
1676642615.9,286046998.4,N
1676642635.7,286046996.6,N
1676642655.6,286046997.2,N
1676642675.4,286046996.8,N
1676642695.2,286046994.1,N
1676642715.1,286046994.6,N
1676642716.0,286046994.6,N
1676642735.8,286046992.3,N
1676642755.7,286046994.1,N
1676642775.5,286046994.3,N
1676642795.3,286046995.9,N
1676642815.2,286046993.5,N
1676642835.0,286046993.5,N
1676642835.9,286046993.5,N
1676642855.8,286046995.9,N
1676642875.6,286046996.4,N
1676642895.4,286046995.9,N
1676642915.3,286046993.6,N
1676642935.1,286046993.6,N
1676642955.8,286046995.3,N
1676642975.7,286046998.4,N
1676642995.5,286046999.1,N
1676643015.4,286046998.2,N
1676643035.2,286047011.9,Y
1676643055.0,286047004.1,P
1676643055.9,286047004.1,N
1676643075.8,286047001.6,N
1676643095.6,286047003.8,N
1676643115.4,286047005.3,N
1676643135.3,286047005.9,N
1676643155.1,286047000.6,N
1676643175.9,286046998.3,N
1676643195.7,286046999.0,N
1676643215.5,286046998.3,N
1676643235.4,286046999.0,N
1676643255.2,286046997.3,N
1676643275.0,286046995.8,N
1676643275.9,286046995.8,N
1676643295.8,286046997.0,N
1676643315.6,286046995.4,N
1676643335.5,286046997.1,N
1676643355.3,286046996.7,N
1676643375.1,286046998.7,N
1676643395.9,286046999.9,N
1676643415.7,286047001.8,N
1676643435.5,286047004.0,N
1676643455.4,286047001.7,N
1676643475.2,286047001.7,N
1676643495.1,286047002.9,N
1676643496.0,286047002.9,N
1676643515.8,286046999.0,N
1676643535.6,286047001.0,N
1676643555.5,286047000.1,N
1676643575.3,286047001.0,N
1676643595.1,286047001.8,N
1676643615.9,286047001.8,N
1676643635.7,286047002.4,N
1676643655.2,286047002.1,N
1676643675.1,286047004.4,N
1676643676.0,286047004.4,N
1676643695.8,286047002.8,N
1676643715.6,286047000.1,N
1676643735.5,286047002.3,N
1676643755.3,286047001.4,N
1676643775.2,286047001.7,N
1676643795.9,286047004.1,N
1676643815.7,286046999.5,N
1676643835.6,286046999.0,N
1676643855.4,286047000.0,N
1676643875.2,286047002.5,N
1676643895.1,286047003.1,N
1676643896.0,286047003.1,N
1676643915.8,286047004.1,N
1676643935.7,286047004.4,N
1676643955.5,286046998.5,N
1676643975.3,286047001.1,N
1676643995.2,286046999.3,N
1676644015.0,286047002.7,N
1676644015.9,286047002.7,N
1676644035.8,286046999.7,N
1676644055.6,286047002.8,N
1676644075.4,286046999.8,N
1676644095.3,286047000.3,N
1676644115.1,286046999.4,N
1676644135.9,286046998.3,N
1676644155.7,286047001.9,N
1676644175.5,286047002.1,N
1676644195.4,286047002.1,N
1676644215.2,286047004.3,N
1676644235.0,286047005.0,N
1676644236.0,286047005.0,N
1676644255.8,286047005.6,N
1676644275.6,286047003.1,N
1676644295.5,286047003.9,N
1676644315.3,286047002.4,N
1676644335.1,286047000.5,N
1676644355.9,286046998.4,N
1676644375.7,286047001.0,N
1676644395.6,286047001.4,N
1676644415.4,286047001.5,N
1676644435.2,286047000.4,N
1676644455.1,286046999.2,N
1676644456.0,286046999.2,N
1676644475.8,286046994.9,N
1676644495.7,286046998.7,N
1676644515.5,286046998.3,N
1676644535.3,286046996.5,N
1676644555.2,286047000.9,N
1676644575.9,286047000.9,N
1676644595.7,286047001.2,N
1676644615.6,286046998.4,N
1676644635.4,286046999.5,N
1676644655.2,286046998.5,N
1676644675.1,286047000.9,N
1676644676.0,286047000.9,N
1676644695.8,286046998.4,N
1676644715.7,286047000.9,N
1676644735.5,286047000.5,N
1676644755.3,286047001.0,N
1676644775.2,286046998.5,N
1676644795.0,286047000.9,N
1676644795.9,286047000.9,N
1676644815.8,286046998.6,N
1676644835.6,286046998.6,N
1676644855.4,286046999.8,N
1676644875.3,286047000.4,N
1676644895.1,286046998.1,N
1676644915.9,286046999.8,N
1676644935.7,286046997.0,N
1676644955.5,286046996.7,N
1676644975.4,286046998.8,N
1676644995.2,286046998.8,N
1676645015.0,286047000.0,N
1676645015.9,286047000.0,N
1676645035.8,286047002.6,N
1676645055.6,286047002.5,N
1676645075.5,286046998.1,N
1676645095.3,286047000.4,N
1676645115.1,286046996.5,N
1676645135.9,286046998.6,N
1676645155.7,286046996.6,N
1676645175.5,286046996.2,N
1676645195.4,286046995.4,N
1676645215.2,286046993.4,Y
1676645235.1,286046997.4,P
1676645236.0,286046997.4,N
1676645255.8,286046998.8,N
1676645275.6,286046998.9,N
1676645295.5,286046998.1,N
1676645315.3,286046999.8,N
1676645335.1,286047001.9,N
1676645355.9,286047000.0,N
1676645375.7,286047000.5,N
1676645395.6,286047000.9,N
1676645415.4,286046996.5,N
1676645435.2,286046999.0,N
1676645455.1,286046995.8,N
1676645456.0,286046995.8,N
1676645475.8,286046995.1,N
1676645495.6,286046995.4,N
1676645515.5,286047001.2,N
1676645535.3,286046999.6,N
1676645555.2,286046996.9,N
1676645575.9,286046996.7,N
1676645595.7,286046998.9,N
1676645615.6,286046998.6,N
1676645635.4,286046998.4,N
1676645655.2,286047000.5,N
1676645675.1,286047002.0,N
1676645676.0,286047002.0,N
1676645695.8,286047003.4,N
1676645715.7,286047003.5,N
1676645735.5,286047004.3,N
1676645755.3,286046999.9,N
1676645775.2,286046998.5,N
1676645795.0,286047002.7,N
1676645795.9,286047002.7,N
1676645815.7,286046999.7,N
1676645835.6,286047004.4,N
1676645855.4,286047001.7,N
1676645875.3,286047001.4,N
1676645895.1,286047002.3,N
1676645896.0,286047002.3,N
1676645915.8,286047001.8,N
1676645935.7,286047001.8,N
1676645955.5,286047004.0,N
1676645975.3,286047000.0,N
1676645995.2,286046998.1,N
